Flag Weather past 2 weeks in Borken, North Rhine-Westphalia, Germany

Now
41 °F

Fog.


Feels Like: 39 °F
Forecast: 37 / 46 °F
Wind: 3 mph from East

Location: Twenthe

Current Time: Nov 28, 2014 at 12:35:20 AM

Latest Report: Nov 27, 2014 at 11:00 PM


Visibility: 4 mi

Pressure: 29.78 "Hg

Humidity: 87%

Dew point: 37 °F

Location of BorkenLocation

Historic Weather in Borken — Graph

°F

Borken temperature yesterday

Maximum temperature yesterday: 44 °F (at 1:00 PM)
Minimum temperature yesterday: 40 °F (at 12:00 AM)
Average temperature yesterday: 42 °F

Past Weeks' High & Low Weather Summary

 TemperatureHumidityPressure
High59 °F (Nov 23, 2:00 PM)100% (Nov 13, 2:00 AM)30.36 "Hg (Nov 13, 2:00 AM)
Low31 °F (Nov 21, 4:00 AM)67% (Nov 24, 1:00 PM)29.47 "Hg (Nov 16, 2:00 PM)
Average45 °F88%29.97 "Hg
* Reported Nov 12 11:00 PM — Nov 27 11:00 PM, Borken, Weather by CustomWeather, © 2014

Note: Actual official high and low records may vary slightly from our data, if they occured in-between our weather recording intervals... More about our weather records

Advertising

Borken weather history for previous 24 hours

 ConditionsComfort  
Time TempWeatherWind HumidityBarometerVisibility
11:00 PM
Nov 27
41 °FFog.3 mph87%29.78 "Hg4 mi
10:00 PM41 °FOvercast.5 mph88%29.78 "Hg4 mi
9:00 PM41 °FDrizzle. Overcast.3 mph88%29.78 "Hg4 mi
8:00 PM42 °FDrizzle. Overcast.3 mph81%29.78 "Hg6 mi
7:00 PM42 °FOvercast.3 mph82%29.78 "Hg6 mi
6:00 PM42 °FRain. Overcast.3 mph86%29.78 "Hg4 mi
5:00 PM43 °FRain showers. Overcast.5 mph85%29.78 "Hg4 mi
4:00 PM43 °FFog.5 mph80%29.78 "Hg6 mi
3:00 PM44 °FFog.5 mph79%29.78 "Hg6 mi
2:00 PM44 °FFog.3 mph79%29.79 "Hg6 mi
1:00 PM44 °FOvercast.3 mph79%29.80 "Hg6 mi
12:00 PM44 °FOvercast.3 mph79%29.81 "Hg6 mi
11:00 AM43 °FOvercast.5 mph79%29.82 "Hg6 mi
10:00 AM42 °FOvercast.3 mph79%29.82 "Hg6 mi
9:00 AM42 °FOvercast.3 mph80%29.83 "Hg6 mi
8:00 AM42 °FOvercast.3 mph81%29.82 "Hg6 mi
7:00 AM42 °FOvercast.2 mph81%29.82 "Hg6 mi
6:00 AM42 °FOvercast.3 mph81%29.83 "Hg6 mi
5:00 AM41 °FOvercast.2 mph82%29.84 "Hg6 mi
4:00 AM41 °FOvercast.2 mph83%29.85 "Hg6 mi
3:00 AM41 °FFog.2 mph85%29.86 "Hg6 mi
2:00 AM40 °FFog.3 mph86%29.87 "Hg6 mi
1:00 AM40 °FFog.3 mph86%29.89 "Hg6 mi
12:00 AM40 °FFog.3 mph87%29.91 "Hg6 mi
Weather by CustomWeather, © 2014

See weather overviewHow to use our weather pages